This is the latest recevied weather packets stored in our database for station/object KC7UNY-13. If no packets are shown the sender has not sent any weather packets the latest 10 day(s).
| Time | Temp. | Humidity | Pressure | Rain* | Wind** | Luminosity | Snow |
|---|---|---|---|---|---|---|---|
| 1777858954 | 31.67° C | 20% | 1006.7 hPa | 0 mm | - | 16 W/m² | - |
| 1777858652 | 31.67° C | 20% | 1006.8 hPa | 0 mm | - | 22 W/m² | - |
| 1777858349 | 32.22° C | 20% | 1006.6 hPa | 0 mm | - | 29 W/m² | - |
| 1777858046 | 32.22° C | 19% | 1006.8 hPa | 0 mm | - | 37 W/m² | - |
| 1777857744 | 32.22° C | 19% | 1006.9 hPa | 0 mm | - | 41 W/m² | - |
| 1777857440 | 32.78° C | 19% | 1006.7 hPa | 0 mm | - | 37 W/m² | - |
| 1777857137 | 33.33° C | 19% | 1006.6 hPa | 0 mm | - | 29 W/m² | - |
| 1777856833 | 33.89° C | 18% | 1006.6 hPa | 0 mm | - | 67 W/m² | - |
| 1777856529 | 33.89° C | 18% | 1006.7 hPa | 0 mm | - | 77 W/m² | - |
| 1777856226 | 33.89° C | 18% | 1006.6 hPa | 0 mm | - | 87 W/m² | - |
| 1777855923 | 33.89° C | 18% | 1006.7 hPa | 0 mm | - | 97 W/m² | - |
| 1777855621 | 34.44° C | 18% | 1006.8 hPa | 0 mm | - | 106 W/m² | - |
| 1777855317 | 34.44° C | 18% | 1006.6 hPa | 0 mm | - | 117 W/m² | - |
| 1777855014 | 34.44° C | 18% | 1006.7 hPa | 0 mm | - | 128 W/m² | - |
| 1777854711 | 34.44° C | 18% | 1006.6 hPa | 0 mm | - | 139 W/m² | - |
| 1777854407 | 35° C | 17% | 1006.6 hPa | 0 mm | - | 150 W/m² | - |
| 1777854105 | 35° C | 17% | 1006.5 hPa | 0 mm | - | 162 W/m² | - |
| 1777853803 | 35° C | 17% | 1006.7 hPa | 0 mm | - | 170 W/m² | - |
| 1777853498 | 35.56° C | 17% | 1006.4 hPa | 0 mm | - | 187 W/m² | - |
| 1777853196 | 35° C | 17% | 1006.6 hPa | 0 mm | - | 202 W/m² | - |
| 1777852894 | 35.56° C | 17% | 1006.4 hPa | 0 mm | - | 214 W/m² | - |
| 1777852591 | 35.56° C | 17% | 1006.5 hPa | 0 mm | - | 231 W/m² | - |
| 1777852287 | 36.11° C | 17% | 1006.6 hPa | 0 mm | - | 248 W/m² | - |
| 1777851986 | 36.11° C | 17% | 1006.4 hPa | 0 mm | - | 265 W/m² | - |
| 1777851684 | 36.11° C | 17% | 1006.4 hPa | 0 mm | - | 283 W/m² | - |
* Rain latest hour (hover to see other rain measurements)
** Current wind speed in m/s (hover to see current wind gust speed)